This demonstration page uses our WeatherBlox Daily Observations layout. Learn more.

Left ArrowRight Arrow

Hourly Observations for March 2, 2016

Temp ( °F °C ) Dew Point ( °F °C ) Humidity (%) Winds ( mph kmh ) Pressure ( in mb ) Visibility ( mi km ) Precip ( " mm )
12:54 am 00:54 Clear 19 -7.2 15 -9.4 84 84 Calm 30.18 1022 10 16 0.00 0.00
1:54 am 01:54 Clear 18 -7.8 14 -10 84 84 Calm 30.16 1021 10 16 0.00 0.00
2:54 am 02:54 Mostly Cloudy 24 -4.4 18 -7.8 77 77 S 6 9 30.14 1021 10 16 0.00 0.00
3:54 am 03:54 Cloudy 24 -4.4 19 -7.2 81 81 SSE 5 7 30.11 1020 10 16 0.00 0.00
4:54 am 04:54 Cloudy 26 -3.3 19 -7.2 75 75 S 9 15 30.09 1019 10 16 0.00 0.00
5:54 am 05:54 Cloudy 28 -2.2 19 -7.2 69 69 SSE 9 15 30.08 1019 10 16 0.00 0.00
6:54 am 06:54 Cloudy 29 -1.7 19 -7.2 66 66 SSE 13 20 30.06 1018 10 16 0.00 0.00
7:54 am 07:54 Cloudy 30 -1.1 20 -6.7 66 66 SSE 15 24 30.02 1017 10 16 0.00 0.00
8:54 am 08:54 Cloudy 33 0.6 21 -6.1 61 61 SSE 16 26 29.99 1016 10 16 0.00 0.00
9:54 am 09:54 Sunny 38 3.3 23 -5 55 55 SSE 16 26 29.96 1015 10 16 0.00 0.00
10:54 am 10:54 Sunny 45 7.2 25 -3.9 46 46 S 21 33 29.92 1013 10 16 0.00 0.00
11:54 am 11:54 Partly Cloudy 48 8.9 26 -3.3 42 42 S 20 31 29.88 1012 10 16 0.00 0.00
12:54 pm 12:54 Mostly Cloudy 52 11.1 27 -2.8 38 38 S 12 19 29.83 1010 10 16 0.00 0.00
1:54 pm 13:54 Sunny 58 14.4 29 -1.7 33 33 S 10 17 29.78 1009 10 16 0.00 0.00
2:54 pm 14:54 Sunny 61 16.1 29 -1.7 30 30 S 13 20 29.74 1007 10 16 0.00 0.00
3:54 pm 15:54 Cloudy 60 15.6 29 -1.7 31 31 SW 9 15 29.74 1007 10 16 0.00 0.00
4:54 pm 16:54 Mostly Sunny 59 15 30 -1.1 33 33 WSW 5 7 29.73 1007 10 16 0.00 0.00
5:54 pm 17:54 Partly Cloudy 53 11.7 31 -0.6 43 43 NE 7 11 29.73 1007 10 16 0.00 0.00
6:54 pm 18:54 Mostly Cloudy 50 10 29 -1.7 44 44 NNE 8 13 29.75 1007 10 16 0.00 0.00
7:54 pm 19:54 Cloudy 48 8.9 28 -2.2 46 46 NNE 6 9 29.78 1008 10 16 0.00 0.00
8:54 pm 20:54 Cloudy 45 7.2 28 -2.2 52 52 NNE 8 13 29.79 1009 10 16 0.00 0.00
9:54 pm 21:54 Mostly Cloudy 44 6.7 28 -2.2 53 53 NE 9 15 29.82 1010 10 16 0.00 0.00
10:54 pm 22:54 Clear 39 3.9 27 -2.8 62 62 NNE 10 17 29.83 1010 10 16 0.00 0.00
11:54 pm 23:54 Clear 36 2.2 26 -3.3 67 67 NNE 12 19 29.85 1011 10 16 0.00 0.00

Powered by AerisWeather